Location: ????
(33.1659°N, 35.6604°E)
Time: 15:58:04
(UTC+00:00)

CZ-2D R/B - Pass Details

Date: 20 September 2019
Orbit: 523 x 538 km, 97.4° (Epoch: 21 October)

Event Time Altitude Azimuth Distance (km) Brightness Sun altitude
Rises 16:48:40 0° 176° (S) 2,639 6.6 -15.6°
Reaches altitude 10° 16:50:47 10° 181° (S) 1,753 5.8 -16.0°
Maximum altitude 16:54:30 56° 260° (W) 628 3.9 -16.8°
Drops below altitude 10° 16:58:14 10° 339° (NNW) 1,764 6.3 -17.6°
Sets 17:00:23 0° 344° (NNW) 2,657 7.2 -18.0°
